Simultaneous Nadir Overpasses (SNOs) Predictions

Prediction of SNOs between NOAA-19 and METOP-C Satellite Orbit:

Table of predicted SNOs for the next 14.0 days since TLE Epoch: 4/20/2024
Index Date (NOAA-19) Time (NOAA-19) Lat,Lon (NOAA-19) SZA (NOAA-19 ) Date (METOP-C) Time (METOP-C) Lat,Lon (METOP-C) SZA (METOP-C ) Distance(km) Time Diff (sec)
1 04/27/2024 16:33:54 80.17, -44.55 66.91 04/27/2024 16:35:02 80.16, -44.67 66.91 2.64 68
2 04/27/2024 17:24:55 -80.17, 122.77 113.10 04/27/2024 17:25:42 -80.18, 122.88 113.07 2.22 47
3 04/27/2024 18:15:50 80.22, -69.35 66.98 04/27/2024 18:16:21 80.23, -69.20 67.02 3.20 31
4 04/27/2024 19:06:50 -80.25, 98.29 112.98 04/27/2024 19:07:01 -80.25, 98.36 112.96 1.43 11
5 04/27/2024 19:57:46 80.27, -94.15 67.06 04/27/2024 19:57:41 80.27, -94.03 67.07 2.41 5
6 04/27/2024 20:48:46 -80.29, 73.49 112.90 04/27/2024 20:48:21 -80.29, 73.53 112.91 0.64 25
7 04/27/2024 21:39:42 80.31,-118.94 67.13 04/27/2024 21:39:01 80.32,-118.85 67.13 1.64 41



Historial Predications of SNOs between NOAA-19 and METOP-C
